CAPE
0 0 0 0 0 0 0 0 0 0 0 0 0 0 0 0 0 0 0 0 6 553 606 1334 1437 1477 1485 1439 1174 936 887 325 167 224 177 75 91 160 118 95 1 0 0 0
0 0 0 0 0 0 0 0 0 0 0 0 0 0 0 0 0 0 0 0 0 40 741 1318 1576 1474 1297 1299 1222 881 607 269 298 236 212 105 110 137 96 69 43 0 0 0
0 0 0 0 0 0 0 0 0 0 0 0 0 0 0 0 0 0 0 0 0 0 10 929 1670 1415 1321 1323 1211 1093 652 603 402 264 219 60 20 53 94 71 58 14 1 0
0 0 0 0 0 0 0 0 0 0 0 0 0 0 0 0 0 0 0 0 0 0 0 827 1533 1429 1275 1244 1208 1131 752 599 512 384 295 160 95 62 115 85 27 33 13 0
0 0 0 0 0 0 0 0 0 0 0 0 0 0 0 1 1 1 0 0 0 0 0 871 1363 1104 1301 1096 1221 1195 863 625 558 482 465 244 54 24 24 36 39 31 28 4
0 0 0 0 0 0 0 0 0 0 0 0 0 0 0 0 1 2 0 0 0 0 0 0 0 19 147 340 532 774 791 622 583 429 400 300 201 19 3 7 27 35 1 18
0 0 0 0 0 0 0 0 0 0 0 0 0 0 1 0 0 0 4 1 0 0 0 0 0 0 0 0 0 0 46 520 512 436 335 255 181 45 5 0 0 45 20 0
0 0 0 0 0 0 0 0 0 0 0 0 0 0 0 0 2 1 2 0 0 0 0 0 0 0 0 0 0 0 0 0 345 451 331 297 251 132 66 4 0 38 60 29
0 0 0 0 0 0 0 0 0 0 0 0 0 0 0 0 0 0 2 0 0 0 0 0 0 0 0 0 0 0 0 0 0 0 124 294 284 195 274 173 3 6 108 110
0 1 0 0 0 0 0 0 0 0 0 0 0 0 0 0 0 0 0 0 2 0 0 0 0 0 0 0 0 0 0 0 0 0 0 0 196 335 303 241 151 42 90 153
0 0 0 0 0 0 0 0 0 0 0 0 0 0 3 0 0 0 0 0 1 1 0 0 0 0 0 0 0 0 0 0 0 0 0 0 0 7 496 470 221 180 118 20
0 0 0 0 0 0 0 1 0 0 0 0 0 0 0 0 0 0 0 0 0 1 0 0 0 0 0 0 0 0 0 0 0 0 0 0 0 0 1 361 482 278 252 72
0 0 0 0 0 0 0 0 0 0 0 0 0 0 0 0 0 0 0 0 0 0 0 0 0 0 0 0 0 0 0 0 0 0 0 0 0 0 0 0 332 323 320 243
0 0 0 0 0 0 0 0 0 0 0 0 0 0 0 0 1 0 0 0 0 0 1 2 0 0 0 0 0 0 0 0 0 0 0 0 0 0 0 0 0 169 326 331
0 0 0 0 0 0 0 0 0 0 0 0 0 0 0 0 1 1 1 0 1 0 0 0 1 1 1 1 0 0 0 0 0 0 0 0 0 0 0 0 0 0 262 337
0 0 0 0 0 0 0 0 0 0 0 0 0 0 0 0 0 0 1 0 1 1 0 0 0 0 1 1 1 1 1 0 0 1 2 0 0 0 0 0 0 0 29 387
0 0 0 0 0 0 0 0 0 2 2 0 0 0 0 0 0 0 0 0 0 1 1 2 1 1 1 1 1 1 2 1 1 0 2 1 0 0 1 0 0 0 1 299
0 0 0 0 0 0 0 0 0 2 1 0 0 0 0 0 0 0 0 0 0 0 0 1 1 1 1 0 1 2 2 0 1 2 2 1 1 1 0 0 0 0 37 322
0 0 0 0 0 0 0 0 0 1 0 0 0 0 0 0 0 0 0 0 0 0 0 1 1 1 1 1 1 2 0 1 3 3 2 2 1 1 2 1 1 0 1 573
0 0 0 0 0 0 0 0 0 0 0 0 0 0 0 0 0 0 0 0 0 0 0 0 0 0 1 1 1 1 0 1 2 2 1 2 1 2 3 2 2 1 1 114
0 0 0 0 0 0 0 0 0 0 0 0 0 0 0 0 0 0 0 0 0 0 0 0 0 0 0 0 1 0 1 1 1 1 1 1 1 2 3 4 4 3 1 0
0 0 0 0 0 0 0 0 0 0 0 0 0 0 0 0 0 0 0 0 0 0 0 0 0 0 0 0 1 1 0 0 1 1 2 1 2 2 3 4 5 7 5 3
0 0 0 0 0 0 0 0 0 0 0 0 0 0 0 0 0 0 0 0 0 0 0 0 0 0 0 0 0 0 0 0 0 1 2 2 1 2 2 5 8 8 6 4
0 0 0 0 0 0 0 0 0 0 0 0 0 0 0 0 0 0 0 0 0 0 0 0 0 0 0 0 0 0 0 1 0 1 0 1 1 1 2 2 3 6 8 6
0 0 0 0 0 0 7 0 0 0 0 0 0 0 0 0 0 0 0 0 0 0 0 0 0 0 0 0 0 0 0 0 0 1 1 1 0 1 1 1 1 2 1 2
0 0 0 0 0 0 0 0 0 0 0 0 0 0 0 0 0 0 0 0 0 0 0 0 0 0 0 0 0 0 0 0 0 0 1 1 1 1 2 3 2 0 0 0
CIN
-0 -0 -0 -0 -0 -0 -0 -0 -0 -0 -0 -0 -0 -0 -0 -0 -0 -0 -0 -0 -47 -62 -98 -106 -94 -61 -47 -48 -45 -43 -28 -98 -139 -131 -108 -133 -133 -118 -152 -130 -9 -0 -0 -0
-0 -0 -0 -0 -0 -0 -0 -0 -0 -0 -0 -0 -0 -0 -0 -0 -0 -0 -0 -0 -0 -53 -70 -98 -75 -63 -40 -50 -46 -50 -43 -72 -97 -135 -103 -133 -128 -109 -111 -142 -141 -0 -0 -0
-0 -0 -0 -0 -0 -0 -0 -0 -0 -0 -0 -0 -0 -0 -0 -0 -0 -0 -0 -0 -0 -0 -13 -78 -69 -53 -56 -45 -58 -64 -109 -74 -94 -126 -91 -123 -153 -120 -113 -156 -142 -187 -61 -0
-0 -0 -0 -0 -0 -0 -0 -0 -0 -0 -0 -0 -0 -0 -0 -0 -0 -0 -0 -0 -0 -0 -0 -84 -76 -74 -70 -50 -69 -83 -92 -108 -101 -112 -70 -65 -92 -141 -134 -87 -143 -166 -163 -0
-0 -0 -0 -0 -0 -0 -0 -0 -0 -0 -0 -0 -0 -0 -0 -0 -0 -0 -0 -0 -0 -0 -0 -107 -117 -70 -66 -79 -72 -76 -91 -71 -92 -88 -65 -63 -92 -123 -180 -131 -144 -137 -121 -132
-0 -0 -0 -0 -0 -0 -0 -0 -0 -0 -0 -0 -0 -0 -0 -0 -0 -0 -0 -0 -0 -0 -0 -0 -0 -179 -214 -135 -96 -92 -100 -72 -68 -79 -89 -83 -76 -117 -147 -169 -125 -102 -63 -135
-0 -0 -0 -0 -0 -0 -0 -0 -0 -0 -0 -0 -0 -0 -0 -0 -0 -0 -0 -0 -0 -0 -0 -0 -0 -0 -0 -0 -0 -0 -32 -9 -37 -54 -60 -93 -87 -125 -78 -0 -0 -90 -120 -0
-0 -0 -0 -0 -0 -0 -0 -0 -0 -0 -0 -0 -0 -0 -0 -0 -0 -0 -0 -0 -0 -0 -0 -0 -0 -0 -0 -0 -0 -0 -0 -0 -16 -13 -46 -72 -97 -79 -106 -35 -0 -104 -101 -146
-0 -0 -0 -0 -0 -0 -0 -0 -0 -3 -0 -0 -0 -12 -0 -0 -0 -0 -0 -0 -0 -0 -0 -0 -0 -0 -0 -0 -0 -0 -0 -0 -0 -0 -29 -22 -31 -42 -62 -74 -28 -117 -87 -73
-0 -2 -0 -0 -0 -0 -0 -0 -0 -0 -0 -0 -0 -0 -0 -0 -0 -0 -0 -0 -0 -0 -0 -0 -0 -0 -0 -0 -0 -0 -0 -0 -0 -0 -0 -0 -46 -11 -34 -59 -76 -120 -81 -44
-0 -0 -0 -0 -0 -0 -0 -0 -0 -0 -0 -0 -0 -0 -2 -0 -0 -0 -0 -0 -0 -0 -0 -0 -0 -0 -0 -0 -0 -0 -0 -0 -0 -0 -0 -0 -0 -2 -3 -9 -55 -69 -82 -109
-0 -0 -0 -0 -0 -0 -0 -0 -0 -0 -0 -0 -0 -0 -0 -0 -0 -0 -0 -0 -0 -0 -0 -0 -0 -0 -0 -0 -0 -0 -0 -0 -0 -0 -0 -0 -0 -0 -3 -17 -10 -36 -51 -127
-0 -0 -0 -0 -0 -0 -0 -0 -0 -0 -0 -0 -0 -0 -0 -0 -0 -0 -0 -0 -0 -0 -0 -0 -0 -0 -0 -0 -0 -0 -0 -0 -0 -0 -0 -0 -0 -0 -0 -0 -20 -18 -23 -61
-0 -0 -0 -0 -0 -0 -0 -0 -0 -0 -0 -0 -0 -0 -0 -0 -0 -0 -0 -0 -0 -0 -0 -0 -0 -0 -0 -0 -0 -0 -0 -0 -0 -0 -0 -0 -0 -0 -0 -0 -0 -90 -25 -20
-0 -0 -0 -0 -0 -0 -0 -0 -0 -0 -0 -0 -0 -0 -0 -0 -0 -0 -0 -0 -0 -0 -0 -0 -0 -0 -0 -0 -0 -0 -0 -0 -0 -0 -0 -0 -0 -0 -0 -0 -0 -0 -38 -27
-0 -0 -0 -0 -0 -0 -0 -0 -0 -0 -0 -0 -0 -0 -0 -0 -0 -0 -0 -0 -0 -0 -0 -0 -0 -0 -0 -0 -0 -0 -0 -0 -0 -0 -0 -0 -0 -0 -0 -0 -0 -0 -72 -35
-0 -0 -0 -0 -0 -0 -0 -0 -0 -14 -6 -0 -1 -0 -0 -0 -0 -0 -0 -0 -0 -0 -0 -0 -0 -0 -0 -0 -0 -0 -0 -0 -0 -0 -0 -0 -0 -0 -1 -1 -0 -0 -46 -47
-0 -0 -0 -0 -0 -0 -0 -0 -0 -17 -3 -0 -0 -0 -0 -0 -0 -0 -0 -0 -0 -0 -0 -0 -0 -0 -0 -0 -0 -0 -0 -0 -0 -0 -0 -0 -0 -0 -0 -1 -0 -0 -193 -34
-0 -0 -0 -0 -0 -0 -0 -0 -0 -1 -0 -0 -0 -0 -0 -0 -0 -0 -0 -0 -0 -0 -0 -0 -0 -0 -0 -0 -0 -0 -0 -0 -0 -0 -0 -0 -0 -0 -0 -0 -0 -0 -31 -10
-0 -0 -0 -0 -0 -0 -0 -0 -0 -0 -0 -0 -0 -0 -0 -0 -0 -0 -0 -0 -0 -0 -0 -0 -0 -0 -0 -0 -0 -0 -0 -0 -0 -0 -0 -0 -0 -0 -0 -0 -0 -0 -0 -130
-0 -0 -0 -0 -0 -0 -0 -0 -0 -0 -0 -0 -0 -0 -0 -0 -0 -0 -0 -0 -0 -0 -0 -0 -0 -0 -0 -0 -0 -0 -0 -0 -0 -0 -0 -0 -0 -0 -0 -0 -0 -0 -0 -0
-0 -0 -0 -0 -0 -0 -0 -0 -0 -0 -0 -0 -0 -0 -0 -0 -0 -0 -0 -0 -0 -0 -0 -0 -0 -0 -0 -0 -0 -0 -0 -0 -0 -0 -0 -0 -0 -0 -0 -0 -0 -0 -0 -0
-0 -0 -0 -0 -0 -0 -0 -0 -0 -0 -0 -0 -0 -0 -0 -0 -0 -0 -0 -0 -0 -0 -0 -0 -0 -0 -0 -0 -0 -0 -0 -0 -0 -0 -0 -0 -0 -0 -0 -0 -0 -0 -0 -0
-0 -0 -0 -0 -0 -0 -0 -0 -0 -1 -2 -0 -0 -0 -0 -0 -0 -0 -0 -0 -0 -0 -0 -0 -0 -0 -0 -0 -0 -0 -0 -0 -0 -0 -0 -0 -0 -0 -0 -0 -0 -0 -0 -0
-0 -0 -0 -0 -0 -1 -7 -0 -0 -2 -0 -0 -0 -0 -0 -0 -0 -0 -0 -0 -0 -0 -0 -0 -0 -0 -0 -0 -0 -0 -0 -0 -0 -0 -0 -0 -0 -0 -0 -0 -0 -0 -0 -0
-0 -0 -0 -0 -0 -0 -0 -0 -0 -0 -0 -0 -0 -0 -0 -0 -0 -0 -0 -0 -0 -0 -0 -0 -0 -0 -0 -0 -0 -0 -0 -0 -0 -0 -0 -0 -0 -0 -0 -0 -0 -0 -0 -0
Wind_Speed
22 22 26 27 26 27 31 35 39 39 36 39 40 44 43 41 39 42 41 31 30 28 20 17 16 16 15 17 17 17 17 18 16 14 12 12 12 11 9 8 7 7 6 6
22 25 23 25 26 28 30 36 40 35 39 39 44 46 39 36 37 42 41 39 30 29 25 22 20 20 20 18 17 18 19 20 17 14 13 12 10 11 11 12 9 8 6 6
23 24 26 28 29 31 30 34 36 40 42 35 42 48 38 34 29 31 32 40 37 31 29 24 21 20 20 20 19 18 17 19 18 16 16 13 11 10 9 10 11 12 10 8
24 27 27 24 27 30 32 32 34 37 38 41 36 54 36 32 27 26 23 21 26 29 26 25 23 22 21 22 20 20 19 18 20 18 18 16 14 13 13 10 11 12 14 12
28 25 23 24 27 28 30 31 34 35 38 38 35 42 37 27 28 26 21 19 16 14 17 26 25 24 21 21 22 20 20 21 21 20 19 19 19 17 16 14 11 11 8 10
25 20 23 25 27 26 28 33 34 30 28 37 36 38 34 28 27 24 20 18 15 13 11 11 12 16 21 21 25 27 22 21 22 23 22 21 21 21 20 18 14 12 11 9
23 25 24 29 27 24 34 33 33 30 27 30 28 33 27 21 19 20 19 19 16 13 11 11 11 13 14 16 17 19 21 26 22 23 26 24 23 22 21 21 19 17 16 13
25 25 29 31 25 28 29 22 22 25 23 25 27 30 25 19 18 18 17 18 17 14 14 14 14 15 15 16 17 16 19 21 25 24 26 25 24 23 23 24 22 20 19 16
22 19 24 31 26 27 24 22 17 18 21 24 22 19 27 24 22 20 20 20 19 18 17 17 18 18 19 19 19 19 20 19 21 22 26 26 27 26 23 24 25 24 22 19
18 15 25 27 26 27 18 15 16 15 16 17 18 21 24 25 27 23 25 24 23 21 20 19 21 22 22 22 22 22 22 21 23 22 24 26 30 27 26 23 23 23 22 20
18 14 16 23 28 29 22 12 13 10 18 20 20 19 22 22 24 27 26 25 25 23 22 22 23 23 24 25 25 26 26 26 25 25 25 28 29 30 27 26 25 23 20 20
15 18 16 19 32 7 1 6 11 12 18 20 17 16 20 21 21 23 24 25 25 26 24 23 24 26 27 26 27 28 29 28 28 30 30 30 31 32 31 29 26 27 26 23
16 17 17 15 16 8 10 12 7 17 15 11 8 17 22 21 21 22 24 25 25 26 28 28 27 26 27 30 30 30 30 30 32 33 35 36 33 33 34 34 34 30 31 31
22 22 23 26 24 21 22 9 18 5 14 15 13 7 17 22 24 24 24 25 27 27 26 27 29 30 31 32 32 32 34 34 36 38 40 42 40 38 38 38 38 37 32 29
24 28 30 27 26 26 25 28 32 30 19 15 6 8 16 21 23 24 27 27 27 29 30 31 33 35 35 37 37 38 38 38 39 41 42 44 43 43 42 41 39 39 40 39
21 23 24 25 25 26 23 20 21 21 25 11 6 7 9 17 20 23 27 27 29 29 31 33 34 39 40 41 41 42 42 42 42 43 43 43 43 43 44 45 42 42 42 39
20 23 19 16 13 13 19 16 13 17 14 8 6 6 13 14 16 19 21 24 27 28 31 34 36 38 40 42 43 43 43 42 43 42 43 43 43 44 42 43 44 46 45 41
21 21 16 17 19 17 17 14 15 16 14 9 9 4 2 4 8 10 15 17 21 26 29 31 35 38 39 40 40 40 40 41 41 41 42 42 42 44 43 44 45 45 44 40
18 19 20 20 22 20 18 17 18 18 17 12 8 2 2 3 5 4 8 12 16 21 26 28 33 34 35 36 36 36 36 35 34 36 39 39 40 41 40 41 42 42 42 40
22 20 18 18 19 18 16 12 12 20 18 9 6 3 1 2 2 6 9 12 11 11 14 21 17 18 23 26 31 31 31 31 31 32 33 33 34 34 36 37 38 37 37 37
10 12 19 19 16 16 12 10 16 19 15 8 10 6 2 1 1 3 2 3 4 2 5 4 6 13 14 22 15 23 25 26 26 26 25 27 27 28 30 30 30 31 31 29
19 12 12 14 14 11 13 14 19 15 10 9 9 12 9 1 2 6 2 4 3 1 3 4 6 9 8 12 23 18 19 20 20 20 19 20 20 22 23 23 25 25 27 28
19 19 19 19 15 14 12 13 12 11 10 8 9 10 2 2 3 6 5 10 14 8 5 3 4 5 9 11 11 15 17 10 14 16 16 15 16 18 19 19 21 23 24 27
17 18 19 19 17 16 13 13 13 13 11 10 8 4 6 4 4 14 14 13 16 10 14 10 11 5 6 7 9 9 15 18 18 17 14 15 16 16 17 17 19 20 22 24
15 18 18 19 19 18 15 17 14 19 16 20 23 25 15 10 14 9 17 17 12 18 17 15 9 14 6 6 9 8 8 15 21 21 19 16 17 19 19 20 20 20 21 22
20 21 21 21 21 23 22 23 22 20 16 22 23 26 26 27 29 29 29 27 24 26 27 25 22 17 13 10 12 15 13 15 14 23 23 22 22 23 22 22 21 22 22 23
Wind_Direction
337 329 316 315 312 304 297 292 289 289 293 288 281 278 276 274 275 269 262 258 250 248 245 241 237 232 224 222 215 213 207 200 200 210 205 216 219 227 223 214 205 182 184 170
335 331 329 324 319 311 303 296 290 289 293 289 280 275 278 278 283 276 267 259 254 248 247 244 239 235 234 226 221 223 224 204 197 209 220 227 226 234 230 240 233 227 210 212
333 332 332 325 319 313 308 303 298 292 292 285 282 270 275 285 298 304 285 266 262 250 238 238 234 232 236 236 236 228 225 216 222 220 232 232 238 240 237 233 236 244 243 238
334 336 333 333 326 322 309 314 305 297 292 280 280 262 270 284 290 305 311 302 279 252 242 238 237 237 237 238 239 236 232 221 222 219 221 220 223 230 247 222 255 246 248 253
336 342 341 337 332 331 316 318 311 301 289 282 274 261 265 283 279 295 301 311 312 293 277 248 238 237 237 238 240 242 242 237 233 223 219 230 239 246 253 250 253 191 205 244
359 2 354 344 340 339 336 322 312 304 294 278 271 258 263 270 281 284 295 303 309 310 297 280 261 254 251 253 252 250 245 241 240 238 234 232 239 247 251 249 243 236 241 242
355 356 356 347 342 350 340 324 308 297 291 282 280 257 257 281 291 285 287 293 304 304 299 286 278 273 266 262 261 260 261 253 246 245 247 247 244 246 247 252 251 252 258 253
359 351 353 350 351 337 341 345 325 302 296 291 287 256 255 286 296 288 290 294 299 300 293 286 285 281 278 271 270 271 273 271 258 251 251 252 249 250 257 255 257 252 258 259
15 18 12 358 358 359 351 343 350 316 303 299 286 266 262 290 288 304 287 288 293 293 293 287 284 284 281 279 277 275 278 277 278 278 261 258 257 256 258 259 260 261 260 261
34 40 18 12 6 5 15 26 4 333 319 308 294 266 268 282 274 297 292 280 284 286 293 290 285 286 283 282 280 280 279 280 278 281 278 277 265 259 261 263 262 261 263 261
39 64 52 36 22 2 342 225 197 199 278 318 304 280 273 276 285 283 293 289 278 279 284 287 288 291 289 287 282 278 279 278 280 282 282 280 276 277 262 264 267 265 261 260
69 66 76 80 52 184 259 235 192 167 23 325 329 284 291 272 280 292 286 291 290 276 277 283 282 284 285 288 287 284 281 282 280 278 279 279 275 276 277 269 267 269 267 266
82 82 87 96 103 118 106 327 263 113 97 98 144 270 295 274 278 296 297 294 292 286 281 283 284 288 287 284 284 287 288 284 281 278 274 273 276 276 273 274 271 269 269 269
79 82 84 91 98 96 85 66 340 252 100 92 109 203 292 292 288 290 302 298 293 294 289 279 284 285 289 287 286 286 287 287 283 280 276 272 271 273 273 272 271 272 271 271
88 82 85 95 97 84 73 59 45 25 77 103 202 257 296 298 299 299 309 306 304 297 302 286 286 291 288 285 288 285 286 287 285 280 277 272 271 271 270 271 271 273 268 268
93 96 97 94 93 75 77 75 68 72 0 119 236 206 284 293 298 311 319 312 311 307 306 304 291 291 291 288 288 284 284 285 285 280 276 274 271 270 270 269 269 272 271 270
103 101 109 95 118 99 78 79 89 89 99 126 143 220 286 300 305 301 308 314 318 313 313 310 308 301 289 286 290 289 284 283 283 281 277 275 273 269 270 269 269 269 270 269
100 106 110 95 101 100 98 97 94 106 108 118 119 144 241 216 264 259 291 296 304 313 311 309 309 305 302 296 293 291 288 284 281 279 277 276 274 270 270 270 269 270 271 269
117 113 102 97 96 99 96 91 91 103 103 110 116 150 187 223 178 254 271 289 300 302 310 312 317 309 308 303 300 296 290 287 287 284 280 278 274 272 271 270 270 271 273 269
89 99 103 105 94 96 102 113 110 106 102 100 106 111 85 293 332 303 298 297 301 303 306 318 315 305 301 299 307 298 291 289 286 287 285 285 279 278 274 274 272 274 276 274
150 127 104 101 104 102 122 132 114 101 106 110 104 108 102 104 192 167 304 297 115 40 59 35 31 329 318 315 293 293 294 293 293 295 296 286 284 280 280 280 280 279 280 283
8 81 114 106 105 112 118 116 106 121 135 126 111 99 99 169 263 120 93 311 298 28 3 27 39 45 42 334 328 315 311 298 300 309 303 295 296 291 290 288 288 287 287 287
353 29 22 33 75 113 124 132 152 164 153 139 119 109 149 129 264 128 296 307 317 308 317 343 38 44 54 54 353 343 342 307 317 327 327 317 314 312 309 305 301 298 297 294
24 34 15 25 47 82 116 119 145 150 171 173 167 220 274 281 279 314 320 314 322 310 322 318 324 350 20 19 45 55 348 352 355 358 345 347 343 340 338 326 326 319 311 306
122 100 35 20 61 78 115 112 139 101 130 20 39 20 345 330 328 312 331 332 317 330 326 325 323 328 336 358 350 6 9 352 356 360 359 353 355 358 354 352 345 337 334 330
135 130 122 112 119 102 113 114 115 118 130 100 82 63 68 63 44 55 24 5 357 360 358 353 344 335 330 334 338 341 345 348 353 3 3 359 359 359 358 357 355 354 351 346